Theta_e
305 305 307 307 306 305 305 309 309 304 302 301 299 298 296 294 293 292 291 291 290 290 291 293 297 299 299 300 302 302 302 302 303 306 306 306 308 308 308 309 309 309 310 311
306 308 309 307 305 304 303 304 307 305 303 301 297 295 294 293 292 291 290 290 289 290 293 295 295 295 296 296 298 300 301 301 304 304 304 305 305 304 305 306 308 309 310 310
307 307 311 307 304 305 303 302 303 304 303 300 297 294 293 292 291 290 289 288 289 290 292 293 295 293 294 296 299 300 301 299 300 301 302 303 304 304 305 305 306 308 309 310
307 308 310 306 301 304 303 302 301 301 300 299 295 293 292 291 290 288 288 289 289 290 291 291 292 293 292 293 295 296 297 297 299 300 301 301 302 302 302 302 303 306 309 311
308 308 308 305 301 300 302 301 299 301 299 298 298 297 293 290 288 287 287 287 289 289 289 289 291 291 291 293 294 294 292 294 295 296 296 297 298 298 298 299 301 304 307 310
305 307 307 302 299 298 300 303 298 297 298 297 296 298 294 289 287 287 288 289 289 289 289 291 292 292 293 293 293 292 292 293 293 293 294 294 296 296 297 298 299 300 304 307
302 306 304 298 297 298 306 301 296 296 296 296 295 293 290 288 286 286 286 287 288 288 288 289 290 291 291 291 291 290 291 292 292 292 293 293 293 294 295 296 299 299 300 303
302 302 303 296 298 299 296 297 295 294 294 294 292 290 288 287 285 286 286 286 287 288 288 288 289 290 289 290 289 289 290 290 291 291 292 292 292 293 293 295 295 297 298 300
301 301 297 296 295 294 294 294 292 292 291 292 290 288 286 285 283 285 285 285 285 286 287 287 288 287 288 288 289 290 290 290 290 290 290 290 290 290 291 292 291 292 292 295
300 298 296 295 293 293 293 292 291 290 289 289 288 286 285 284 283 283 284 284 285 285 285 286 286 287 287 288 288 288 289 289 289 289 289 290 288 288 286 287 289 289 288 289
299 297 295 294 293 292 292 291 290 289 288 287 286 285 284 283 282 282 282 283 283 284 284 285 285 286 286 287 288 287 287 288 288 288 289 288 287 286 286 284 285 287 286 286
299 296 296 294 292 291 291 290 289 288 286 286 285 284 282 281 281 282 282 282 283 283 283 284 284 285 285 286 286 287 287 287 286 287 288 288 289 287 287 288 288 288 288 289
296 294 294 292 291 290 290 289 288 287 286 284 283 283 282 281 281 281 281 281 281 281 282 283 283 284 284 284 284 285 285 286 286 286 287 287 288 288 288 286 288 289 288 289
294 294 292 291 289 289 289 288 287 286 285 283 282 281 281 281 281 281 280 280 280 281 281 281 282 282 283 283 283 284 284 284 285 285 285 286 286 285 286 287 288 288 287 288
293 293 293 290 288 288 287 286 285 284 282 281 280 280 280 280 280 280 280 280 280 280 280 281 281 281 281 282 282 282 283 283 284 284 284 284 283 283 283 283 284 286 287 287
291 290 289 288 287 286 285 284 283 281 280 280 280 279 279 279 279 279 279 279 279 279 279 280 280 280 280 281 281 282 282 282 283 283 283 283 282 281 281 281 281 281 281 283
291 288 287 286 285 285 284 283 282 281 280 280 280 279 279 278 278 278 278 278 278 278 278 279 279 279 279 280 280 280 280 281 281 281 281 281 280 279 279 279 279 279 278 279
290 290 288 287 286 284 283 281 281 280 280 279 279 278 278 278 278 277 277 277 277 278 278 278 278 278 278 278 278 278 279 279 279 279 279 278 278 277 277 277 277 277 277 277
288 288 287 286 284 283 282 281 280 280 279 279 278 278 278 278 277 276 276 277 278 278 277 276 276 277 278 277 277 277 277 277 277 277 276 276 276 276 276 276 276 276 276 276
286 285 285 284 283 282 282 281 280 279 279 278 278 277 278 277 276 276 275 276 275 275 275 275 275 276 276 276 276 276 276 276 276 275 275 275 275 275 275 274 274 274 274 274
284 284 283 283 282 281 281 281 280 279 279 278 277 277 277 277 275 275 275 275 274 274 274 274 275 275 275 275 275 275 275 275 275 274 274 274 273 273 273 273 273 273 273 273
284 283 282 282 282 281 281 280 279 279 278 278 277 277 277 276 276 275 275 274 273 273 273 273 273 273 273 273 274 274 274 273 273 273 273 273 272 272 272 272 272 272 272 272
283 282 282 282 281 281 280 279 278 278 277 277 277 276 276 275 275 274 274 273 273 273 273 273 272 272 272 273 273 272 272 272 272 272 272 272 271 271 271 271 271 271 270 270
282 282 281 281 280 280 279 278 277 277 277 276 276 275 275 274 274 273 272 272 271 271 271 271 271 272 272 272 272 271 271 271 271 271 271 271 270 270 270 270 270 270 270 270
282 281 281 280 279 279 278 278 277 277 276 276 275 275 274 273 273 272 272 271 271 271 271 270 271 271 271 271 271 271 271 270 270 270 270 270 270 270 269 269 269 269 269 269
282 281 280 280 279 278 278 278 277 277 276 276 275 274 274 273 272 272 272 271 271 271 270 270 270 270 270 270 270 270 270 270 269 269 269 269 269 269 269 269 269 268 268 268
280 280 279 278 278 278 278 277 277 277 276 276 275 274 273 273 272 272 271 271 271 270 270 270 270 270 270 270 269 269 269 269 269 269 269 268 268 268 268 268 268 268 268 268
Wind_Speed
9 13 2 4 12 15 11 11 5 3 6 10 11 12 16 21 26 30 34 35 38 38 38 36 40 37 33 32 26 21 18 20 23 21 20 18 17 19 21 24 26 28 31 32
4 5 9 3 13 12 10 11 6 5 6 5 12 17 25 26 28 31 32 33 34 35 38 38 37 34 33 30 28 25 24 25 27 25 23 22 21 20 20 21 23 25 28 31
2 5 3 4 8 7 8 14 8 8 6 5 9 16 22 25 27 27 27 31 34 34 35 34 33 31 32 31 29 28 30 29 27 26 26 26 26 25 24 23 23 22 24 26
4 6 2 4 6 3 7 10 10 9 12 8 7 13 19 21 22 24 28 29 30 30 29 27 26 27 27 27 27 28 28 29 30 30 30 30 29 28 26 24 22 21 22 22
2 3 4 4 6 6 4 7 13 12 13 18 1 1 17 19 18 19 21 21 23 23 22 23 24 25 25 28 29 29 28 30 32 33 31 32 30 30 29 27 24 21 20 20
2 2 1 2 13 10 5 2 12 14 13 14 13 6 6 15 18 21 21 21 23 21 21 22 24 26 28 27 28 30 31 30 30 31 32 33 34 32 28 26 24 23 20 17
1 2 4 7 16 9 3 4 10 12 14 10 7 6 6 11 14 18 19 20 20 20 22 23 23 25 26 26 26 26 26 26 27 29 31 33 32 31 30 27 23 21 19 15
1 1 2 12 3 3 4 7 9 11 14 8 7 8 10 11 14 19 19 19 19 20 22 22 23 24 24 25 24 24 23 24 26 29 31 31 32 33 32 30 27 24 21 16
0 1 6 7 7 3 4 4 7 8 9 7 7 8 10 10 12 17 18 18 18 19 20 22 22 23 23 23 23 23 23 25 26 27 29 31 34 34 35 35 33 31 29 25
3 5 6 7 6 4 4 3 5 7 7 7 7 9 11 12 12 15 17 18 18 19 21 23 23 23 23 22 21 21 23 25 26 28 28 29 29 31 32 35 35 34 33 30
3 7 8 5 4 4 3 4 4 7 8 8 8 10 12 12 13 14 14 16 18 20 21 22 22 22 22 22 21 21 22 23 24 25 27 27 27 27 26 25 26 29 30 29
2 6 3 6 5 0 0 2 3 4 6 9 10 10 9 10 11 13 14 16 17 19 20 21 21 21 21 22 22 22 21 22 23 23 24 25 25 24 24 25 24 24 24 26
5 7 6 6 1 2 5 2 2 4 5 6 8 9 10 10 11 12 12 13 16 18 18 18 19 21 20 20 21 20 18 18 19 21 22 23 24 25 25 26 27 28 27 26
7 9 7 5 5 7 2 2 2 4 5 6 7 8 9 10 11 12 13 14 14 16 18 19 19 20 20 20 20 18 16 15 17 18 20 21 23 24 24 25 28 30 31 30
7 5 5 8 7 5 2 1 2 5 6 6 7 8 9 10 12 13 13 13 14 14 17 18 20 21 20 18 18 18 18 18 17 17 18 19 20 21 22 24 25 26 26 27
10 8 8 7 7 5 3 3 4 5 6 7 7 8 9 10 11 13 13 13 15 17 17 18 18 20 20 19 18 17 17 17 17 17 17 18 19 20 21 22 24 27 28 27
11 8 8 7 5 4 3 4 5 6 7 8 9 8 8 9 10 13 14 14 13 14 15 16 17 18 18 18 18 18 18 17 17 17 18 18 18 19 19 20 22 24 26 25
10 7 8 7 7 5 4 5 7 7 8 9 9 8 9 10 13 13 14 12 9 10 14 16 17 16 16 17 17 17 18 18 18 18 17 17 17 17 17 17 18 20 20 20
8 8 9 8 6 5 7 9 9 10 11 10 8 9 12 12 13 13 13 11 12 14 17 17 16 16 16 16 16 16 17 17 17 18 17 16 16 16 16 16 16 16 16 17
10 9 9 9 9 9 10 11 11 9 9 9 9 10 10 11 12 12 13 15 15 16 15 15 14 14 15 15 16 16 16 16 17 17 17 17 16 16 15 15 14 14 14 15
11 12 12 12 13 13 12 11 10 8 7 8 5 7 9 10 10 10 10 12 13 13 13 14 14 14 14 14 14 14 15 15 15 16 16 16 16 16 15 15 14 13 13 13
13 14 15 15 14 13 12 10 9 7 7 6 6 7 8 8 9 11 12 13 13 13 13 14 14 13 13 12 13 13 13 14 14 14 14 14 14 14 14 13 13 12 12 12
16 16 16 15 14 12 11 10 10 9 7 6 6 6 7 7 8 7 8 10 11 12 12 13 14 13 12 12 12 12 12 12 12 13 13 13 13 13 12 12 12 11 10 9
19 18 17 16 14 13 12 11 9 7 5 5 5 6 7 7 7 8 9 10 10 11 11 12 13 13 13 12 12 12 12 12 11 11 11 11 11 10 10 10 10 10 9 7
19 19 18 16 15 14 12 10 7 5 2 2 4 5 5 6 5 6 7 8 9 9 10 11 12 13 13 12 12 12 12 12 12 12 11 10 9 9 9 9 9 8 7 7
21 20 17 14 12 12 10 7 5 4 3 3 3 4 3 4 4 5 5 6 8 9 9 10 11 12 12 11 11 12 12 12 11 11 11 11 10 9 8 8 8 7 6 6
20 20 19 18 15 12 9 6 5 5 5 6 5 4 3 3 3 3 3 5 7 8 9 9 10 11 11 10 10 10 11 11 11 11 11 11 10 9 9 8 8 7 6 6
Wind_Direction
251 263 181 24 29 14 8 350 52 67 26 6 3 357 3 16 18 17 18 20 20 21 29 30 36 36 39 45 51 47 36 23 23 24 11 356 336 313 301 290 282 276 272 267
322 109 170 101 30 30 21 360 62 94 61 22 0 16 22 19 16 14 12 15 18 20 27 26 29 28 29 31 36 35 32 22 22 16 7 358 345 334 319 304 291 281 274 272
299 354 342 64 15 37 55 35 360 22 356 16 29 30 24 18 17 14 14 11 14 18 20 22 22 23 24 24 24 26 27 22 18 12 7 1 353 342 330 319 303 290 280 271
299 322 94 118 58 37 66 48 29 32 12 14 101 64 37 28 24 14 11 12 14 13 17 19 23 23 23 25 27 27 23 18 17 13 9 3 357 351 342 332 317 304 292 277
315 323 122 146 32 338 357 56 17 4 16 5 74 311 28 22 23 17 13 14 14 12 14 18 24 25 21 25 25 25 18 17 16 13 10 7 4 1 354 343 336 326 311 290
15 290 211 19 333 326 246 143 10 3 12 13 11 19 29 9 11 12 13 13 14 13 15 19 22 23 22 23 23 22 18 16 14 14 14 13 9 6 360 352 348 341 326 305
351 277 107 347 324 322 252 19 17 7 2 26 42 49 16 7 14 14 16 17 18 18 21 22 23 24 24 22 23 20 16 16 15 18 18 19 15 15 10 6 2 355 347 329
234 275 201 354 353 50 356 11 18 17 7 54 53 28 17 16 11 12 17 21 23 20 22 23 24 24 24 25 22 20 19 20 19 20 20 22 20 24 21 18 18 14 5 360
297 71 98 72 90 45 23 16 21 24 22 34 35 25 19 14 9 11 15 22 24 25 25 23 25 23 25 24 23 20 21 22 21 20 22 22 22 24 27 24 22 23 17 12
142 140 120 111 91 61 29 41 35 36 40 33 35 20 13 11 9 11 18 22 22 24 26 26 23 22 19 20 23 22 24 25 25 24 24 26 26 22 26 28 26 25 21 21
93 126 121 112 87 50 61 23 25 18 35 43 36 25 15 12 13 14 15 22 25 25 23 21 20 20 18 19 21 21 22 25 25 26 29 30 29 27 25 31 29 27 25 25
184 148 130 130 134 40 23 15 48 52 25 23 26 29 28 31 26 23 21 19 24 25 24 22 19 19 19 20 19 18 17 19 20 22 28 31 38 38 35 36 36 37 30 30
159 141 140 131 87 47 137 119 66 39 38 31 23 25 28 34 28 25 27 26 25 26 24 23 21 22 21 19 18 18 16 14 16 19 26 31 34 36 41 47 42 45 45 40
138 143 127 161 122 119 116 113 39 27 23 26 30 29 25 25 19 21 25 25 23 22 25 26 25 24 22 20 18 17 19 18 20 21 27 31 33 36 37 39 42 43 42 43
162 181 172 149 148 148 136 58 15 30 33 38 38 35 27 25 24 22 19 20 23 22 26 26 26 27 23 21 19 18 20 23 25 26 27 31 34 37 41 45 49 53 55 52
140 137 140 146 139 131 112 74 57 53 52 53 54 49 43 39 29 21 19 20 22 23 23 24 24 23 19 21 21 20 20 21 22 24 27 31 35 38 40 45 49 52 52 52
159 163 169 162 156 135 98 72 77 82 79 79 72 64 54 38 31 32 32 31 28 25 24 23 24 20 17 21 23 23 22 22 23 27 30 30 33 37 41 45 50 53 54 52
206 204 192 194 175 154 119 103 100 94 95 88 79 69 49 38 37 38 39 34 31 31 33 29 23 17 16 19 22 22 22 23 25 29 32 34 36 40 44 48 52 57 61 60
177 173 168 166 161 149 131 121 112 104 97 89 78 59 48 47 47 43 39 30 34 34 29 23 19 15 18 20 22 23 25 26 30 33 35 36 38 41 45 51 54 56 59 62
168 168 165 160 147 139 135 127 118 109 99 85 69 63 51 44 41 37 30 26 27 25 17 13 13 17 20 21 19 20 22 26 30 34 36 38 39 40 41 44 48 55 60 62
165 159 154 150 146 141 138 130 120 114 99 86 63 51 45 43 42 42 33 30 28 25 20 14 15 20 21 22 19 19 20 23 24 27 30 35 38 40 42 44 47 50 55 59
162 157 152 149 147 144 142 132 127 123 104 89 75 61 52 45 36 29 26 25 22 20 18 16 18 19 20 18 19 20 20 20 22 25 27 28 29 31 35 39 45 51 55 58
162 160 156 152 151 151 146 141 136 122 109 96 81 64 54 50 47 39 29 25 23 20 18 15 15 16 20 17 17 16 16 17 19 20 21 22 24 27 30 34 38 44 48 53
168 165 164 159 157 156 156 151 142 131 113 86 62 49 42 34 29 25 25 23 20 22 20 20 18 16 16 15 15 15 15 16 16 16 15 14 15 19 20 25 25 27 31 38
174 172 170 167 162 161 162 158 156 152 132 48 21 16 19 18 21 16 18 17 16 18 19 18 20 20 19 18 16 15 12 10 10 11 10 9 7 6 7 8 10 17 24 33
181 180 175 172 170 172 175 178 181 201 224 268 305 323 338 352 355 359 1 7 8 10 11 10 12 15 15 14 15 14 12 10 8 8 10 10 9 6 3 2 6 11 16 15
182 181 181 183 183 184 185 193 218 230 241 252 262 278 289 318 328 344 346 346 357 3 3 2 2 360 360 358 358 359 358 357 353 351 353 357 360 359 357 353 351 352 353 352